Tracking 23762 objects as of 19-Oct-2021
HD Live streaming from Space Station
objects crossing your sky now

SL-16 DEB

Track SL-16 DEB now!
10-day predictions


NORAD ID: 43375
Int'l Code: 2007-029S
Perigee: 801.6 km
Apogee: 987.0 km
Inclination: 70.9 °
Period: 102.7 minutes
Semi major axis: 7265 km
RCS: Unknown
Launch date: June 29, 2007
Source: Commonwealth of Independent States (former USSR) (CIS)
Launch site: TYURATAM MISSILE AND SPACE COMPLEX (TTMTR)

Note: This is SATELLITE DEBRIS
aabbcc
Your satellite tracking list
Your tracking list is empty




NASA's NSSDC Master Catalog

Two Line Element Set (TLE):
1 43375U 07029S   21291.59776747  .00001196  00000-0  75966-3 0  9990
2 43375  70.9045 224.9488 0127636 338.5776 197.6485 14.01923013404349
Source of the keplerian elements: AFSPC